Location: Unspecified
(35.7250°N, 0.0000°E)
Time: 04:36:39
(UTC+00:00)

Vanguard 1 Rocket - Pass Details

Date: 18 June 2019
Orbit: 651 x 4225 km, 34.3° (Epoch: 20 July)

Event Time Altitude Azimuth Distance (km) Brightness Sun altitude
Rises 17:20:08 0° 234° (SW) 7,685 12.7 21.4°
Reaches altitude 10° 17:26:11 10° 231° (SW) 6,174 12.2 20.2°
Maximum altitude 17:42:29 54° 160° (SSE) 2,296 9.4 17.0°
Drops below altitude 10° 17:50:52 10° 85° (E) 3,322 9.8 15.4°
Sets 17:53:07 0° 81° (E) 4,006 10.2 15.0°
